{"data":{"norad_id":65625,"intl_designator":"2025-210D","name":"STARLINK-35153","alt_names":[],"object_type":"PAYLOAD","status":"ACTIVE","operator":null,"country":"US","launch_date":"2025-09-18","launch_site_code":"AFETR","launch_vehicle":null,"mission":null,"orbit_class":"UNKNOWN","rcs_meters":null,"size_class":null,"mass_kg":null,"dimensions":null,"purposes":["comms"],"wikipedia_slug":null,"has_3d_model":false,"image_url":null,"decayed_at":null,"tle_current":{"epoch":"2026-05-24T21:09:36.988704Z","epoch_age_seconds":95756,"freshness":"FRESH","line1":"1 65625U 25210D   26144.88167811  .00037014  00000+0  11012-2 0  9992","line2":"2 65625  53.1597 311.9560 0001126  85.0422 275.0709 15.34400533 39338","mean_motion":15.34400533,"eccentricity":0.0001126,"inclination_deg":53.1597,"raan_deg":311.956,"arg_perigee_deg":85.0422,"mean_anomaly_deg":275.0709,"bstar":0.0011012,"rev_number":3933,"period_min":93.847725481727,"perigee_km":461.93137758657,"apogee_km":463.47193445191,"semimajor_km":6840.8386560192,"source":"CELESTRAK","updated_at":"2026-05-25T13:38:20.879373Z"}}}